| time (UTC) | temp F | wind direction | speed MPH | gust MPH | rain 1hr in | rain 24hr in | rain mn in | humidity % | barometer mb |
| 20260905043819 | 55 | 272 | 4.0 | 10.0 | 0.00 | 0.02 | 0.00 | 83 | 1016.3 |
| 20260905043319 | 55 | 245 | 3.0 | 8.0 | 0.00 | 0.02 | 0.00 | 83 | 1016.3 |
| 20260905042819 | 55 | 259 | 7.0 | 12.0 | 0.00 | 0.02 | 0.00 | 83 | 1016.3 |
| 20260905042319 | 55 | 252 | 6.0 | 12.0 | 0.00 | 0.02 | 0.00 | 83 | 1016.2 |
| 20260905041819 | 55 | 254 | 5.0 | 12.0 | 0.00 | 0.02 | 0.00 | 83 | 1016.1 |
| 20260905041319 | 55 | 248 | 6.0 | 12.0 | 0.00 | 0.02 | 0.00 | 82 | 1016.0 |
| 20260905040820 | 55 | 232 | 7.0 | 13.0 | 0.00 | 0.02 | 0.00 | 82 | 1015.8 |
| 20260905040319 | 55 | 229 | 6.0 | 12.0 | 0.00 | 0.02 | 0.00 | 82 | 1015.7 |
| 20260905035819 | 55 | 241 | 6.0 | 12.0 | 0.00 | 0.02 | 0.00 | 82 | 1015.7 |
| 20260905034819 | 55 | 246 | 9.0 | 14.0 | 0.00 | 0.02 | 0.00 | 82 | 1015.5 |
| 20260905034319 | 55 | 255 | 6.0 | 15.0 | 0.00 | 0.02 | 0.00 | 83 | 1015.4 |
| 20260905033319 | 55 | 242 | 7.0 | 20.0 | 0.00 | 0.02 | 0.00 | 82 | 1015.4 |
| 20260905032819 | 55 | 245 | 9.0 | 14.0 | 0.00 | 0.02 | 0.00 | 83 | 1015.3 |
| 20260905032318 | 55 | 270 | 6.0 | 13.0 | 0.00 | 0.02 | 0.00 | 83 | 1015.3 |
| 20260905031319 | 55 | 251 | 6.0 | 12.0 | 0.00 | 0.02 | 0.00 | 83 | 1015.1 |
| 20260905030319 | 55 | 244 | 10.0 | 17.0 | 0.00 | 0.02 | 0.00 | 83 | 1015.0 |
| 20260905025819 | 55 | 251 | 7.0 | 12.0 | 0.00 | 0.02 | 0.00 | 83 | 1014.9 |
| 20260905025319 | 55 | 264 | 7.0 | 12.0 | 0.00 | 0.02 | 0.00 | 83 | 1015.0 |
| 20260905024818 | 55 | 245 | 6.0 | 14.0 | 0.00 | 0.02 | 0.00 | 83 | 1015.0 |
| 20260905024320 | 55 | 267 | 6.0 | 9.0 | 0.00 | 0.02 | 0.00 | 82 | 1015.0 |
| 20260905023319 | 56 | 244 | 6.0 | 12.0 | 0.00 | 0.02 | 0.00 | 82 | 1014.8 |
| 20260905022820 | 56 | 249 | 6.0 | 13.0 | 0.00 | 0.02 | 0.00 | 82 | 1014.8 |
| 20260905022319 | 56 | 250 | 7.0 | 14.0 | 0.00 | 0.02 | 0.00 | 82 | 1014.8 |
| 20260905021819 | 56 | 250 | 6.0 | 14.0 | 0.00 | 0.02 | 0.00 | 82 | 1014.7 |
| 20260905021319 | 56 | 257 | 6.0 | 13.0 | 0.00 | 0.02 | 0.00 | 82 | 1014.6 |
| 20260905020819 | 56 | 248 | 6.0 | 13.0 | 0.00 | 0.02 | 0.00 | 82 | 1014.5 |
| 20260905020318 | 56 | 248 | 8.0 | 13.0 | 0.00 | 0.02 | 0.00 | 82 | 1014.5 |
| 20260905015319 | 56 | 267 | 6.0 | 16.0 | 0.00 | 0.02 | 0.00 | 83 | 1014.3 |
| 20260905014818 | 56 | 244 | 9.0 | 16.0 | 0.00 | 0.02 | 0.00 | 83 | 1014.3 |
| 20260905014320 | 56 | 257 | 7.0 | 14.0 | 0.00 | 0.03 | 0.00 | 83 | 1014.2 |
| 20260905013319 | 56 | 246 | 6.0 | 12.0 | 0.00 | 0.05 | 0.00 | 83 | 1014.1 |
| 20260905012819 | 56 | 248 | 10.0 | 21.0 | 0.00 | 0.06 | 0.00 | 82 | 1014.0 |
| 20260905012318 | 56 | 256 | 10.0 | 15.0 | 0.00 | 0.07 | 0.00 | 81 | 1013.9 |
| 20260905011819 | 56 | 253 | 7.0 | 18.0 | 0.00 | 0.09 | 0.00 | 81 | 1013.8 |
| 20260905011318 | 56 | 246 | 7.0 | 17.0 | 0.00 | 0.09 | 0.00 | 81 | 1013.7 |
| 20260905010820 | 56 | 265 | 7.0 | 15.0 | 0.00 | 0.11 | 0.00 | 81 | 1013.5 |
| 20260905005820 | 56 | 245 | 10.0 | 18.0 | 0.00 | 0.13 | 0.00 | 81 | 1013.4 |
| 20260905004819 | 56 | 246 | 9.0 | 16.0 | 0.00 | 0.14 | 0.00 | 82 | 1013.3 |
| 20260905004319 | 56 | 250 | 12.0 | 20.0 | 0.00 | 0.15 | 0.00 | 83 | 1013.5 |
| 20260905003820 | 56 | 247 | 9.0 | 21.0 | 0.00 | 0.16 | 0.00 | 83 | 1013.5 |
| 20260905002819 | 56 | 258 | 9.0 | 18.0 | 0.00 | 0.17 | 0.00 | 83 | 1013.5 |
| 20260905002318 | 56 | 250 | 9.0 | 29.0 | 0.00 | 0.18 | 0.00 | 83 | 1013.5 |
| 20260905001819 | 57 | 262 | 9.0 | 15.0 | 0.00 | 0.19 | 0.00 | 83 | 1013.4 |
| 20260905001319 | 57 | 254 | 7.0 | 20.0 | 0.00 | 0.20 | 0.00 | 83 | 1013.5 |
| 20260905000818 | 57 | 254 | 12.0 | 22.0 | 0.00 | 0.20 | 0.00 | 82 | 1013.4 |
| 20260905000319 | 57 | 260 | 10.0 | 17.0 | 0.00 | 0.20 | 0.00 | 82 | 1013.4 |
| 20260904235819 | 57 | 258 | 9.0 | 23.0 | 0.00 | 0.20 | 0.00 | 82 | 1013.3 |
| 20260904235319 | 57 | 247 | 8.0 | 18.0 | 0.00 | 0.21 | 0.00 | 82 | 1013.2 |
| 20260904234819 | 57 | 257 | 7.0 | 16.0 | 0.00 | 0.22 | 0.00 | 82 | 1013.2 |
| 20260904234318 | 57 | 246 | 10.0 | 21.0 | 0.00 | 0.23 | 0.00 | 82 | 1013.2 |
| 20260904233318 | 57 | 252 | 9.0 | 15.0 | 0.00 | 0.25 | 0.00 | 81 | 1013.2 |
| 20260904232819 | 57 | 231 | 8.0 | 20.0 | 0.00 | 0.27 | 0.00 | 81 | 1013.1 |
| 20260904232318 | 57 | 249 | 8.0 | 15.0 | 0.00 | 0.28 | 0.00 | 81 | 1013.1 |
| 20260904231818 | 57 | 259 | 9.0 | 14.0 | 0.00 | 0.29 | 0.00 | 80 | 1013.0 |
| 20260904231319 | 57 | 237 | 9.0 | 20.0 | 0.00 | 0.30 | 0.00 | 79 | 1013.1 |
| 20260904230902 | 57 | 258 | 8.0 | 12.0 | 0.00 | 0.31 | 0.00 | 79 | 1013.1 |
| 20260904225819 | 58 | 246 | 9.0 | 18.0 | 0.00 | 0.32 | 0.32 | 79 | 1013.0 |
| 20260904225318 | 58 | 268 | 6.0 | 15.0 | 0.00 | 0.33 | 0.32 | 79 | 1012.9 |
| 20260904224319 | 58 | 247 | 9.0 | 15.0 | 0.00 | 0.35 | 0.32 | 80 | 1012.8 |
| 20260904223819 | 58 | 254 | 7.0 | 13.0 | 0.00 | 0.36 | 0.32 | 80 | 1012.8 |
| 20260904222819 | 58 | 254 | 9.0 | 15.0 | 0.00 | 0.38 | 0.32 | 82 | 1012.7 |
| 20260904222318 | 58 | 239 | 7.0 | 16.0 | 0.00 | 0.39 | 0.32 | 82 | 1012.8 |
| 20260904221818 | 58 | 242 | 7.0 | 12.0 | 0.00 | 0.40 | 0.32 | 83 | 1012.8 |
| 20260904221319 | 58 | 246 | 6.0 | 16.0 | 0.00 | 0.41 | 0.32 | 84 | 1012.8 |
| 20260904220819 | 58 | 236 | 7.0 | 10.0 | 0.00 | 0.43 | 0.32 | 83 | 1012.8 |
| 20260904220319 | 58 | 248 | 6.0 | 10.0 | 0.00 | 0.44 | 0.32 | 83 | 1012.9 |
| 20260904215818 | 58 | 248 | 9.0 | 20.0 | 0.00 | 0.46 | 0.32 | 83 | 1012.9 |
| 20260904215318 | 58 | 254 | 6.0 | 17.0 | 0.00 | 0.46 | 0.32 | 82 | 1012.8 |
| 20260904214818 | 58 | 243 | 6.0 | 13.0 | 0.00 | 0.46 | 0.32 | 82 | 1012.8 |
| 20260904214318 | 58 | 247 | 8.0 | 15.0 | 0.00 | 0.47 | 0.32 | 82 | 1012.8 |
| 20260904213819 | 58 | 248 | 6.0 | 20.0 | 0.00 | 0.49 | 0.32 | 82 | 1012.8 |
| 20260904213318 | 58 | 256 | 6.0 | 12.0 | 0.00 | 0.50 | 0.32 | 82 | 1012.7 |
| 20260904212819 | 58 | 239 | 6.0 | 12.0 | 0.00 | 0.50 | 0.32 | 82 | 1012.7 |
| 20260904211818 | 58 | 264 | 7.0 | 12.0 | 0.00 | 0.51 | 0.32 | 84 | 1012.8 |
| 20260904211319 | 58 | 238 | 6.0 | 10.0 | 0.00 | 0.51 | 0.32 | 84 | 1012.8 |
| 20260904210818 | 59 | 247 | 6.0 | 12.0 | 0.00 | 0.51 | 0.32 | 84 | 1012.8 |
| 20260904210318 | 59 | 242 | 6.0 | 14.0 | 0.00 | 0.51 | 0.32 | 84 | 1012.7 |
| 20260904205318 | 59 | 242 | 6.0 | 13.0 | 0.00 | 0.51 | 0.32 | 85 | 1012.7 |
| 20260904204819 | 59 | 238 | 6.0 | 13.0 | 0.00 | 0.51 | 0.32 | 85 | 1012.7 |
| 20260904204318 | 59 | 247 | 7.0 | 12.0 | 0.00 | 0.51 | 0.32 | 85 | 1012.8 |
| 20260904203318 | 59 | 241 | 7.0 | 14.0 | 0.00 | 0.52 | 0.32 | 84 | 1012.8 |
| 20260904202819 | 59 | 249 | 9.0 | 14.0 | 0.00 | 0.52 | 0.32 | 84 | 1012.8 |
| 20260904202318 | 60 | 238 | 8.0 | 18.0 | 0.00 | 0.52 | 0.32 | 82 | 1012.7 |
| 20260904201819 | 60 | 229 | 10.0 | 18.0 | 0.00 | 0.52 | 0.32 | 82 | 1012.6 |
| 20260904201319 | 60 | 250 | 10.0 | 15.0 | 0.00 | 0.52 | 0.32 | 82 | 1012.6 |
| 20260904200819 | 60 | 244 | 5.0 | 14.0 | 0.00 | 0.52 | 0.32 | 82 | 1012.6 |
| 20260904200319 | 60 | 244 | 5.0 | 12.0 | 0.00 | 0.52 | 0.32 | 82 | 1012.6 |
| 20260904195319 | 60 | 230 | 7.0 | 13.0 | 0.00 | 0.53 | 0.32 | 81 | 1012.6 |
| 20260904194318 | 60 | 262 | 4.0 | 12.0 | 0.00 | 0.53 | 0.32 | 81 | 1012.7 |
| 20260904193819 | 60 | 230 | 6.0 | 10.0 | 0.00 | 0.53 | 0.32 | 80 | 1012.6 |
| 20260904193318 | 60 | 256 | 4.0 | 12.0 | 0.00 | 0.53 | 0.32 | 80 | 1012.6 |
| 20260904192819 | 60 | 219 | 6.0 | 10.0 | 0.00 | 0.53 | 0.32 | 80 | 1012.4 |
| 20260904192319 | 60 | 243 | 6.0 | 14.0 | 0.00 | 0.53 | 0.32 | 80 | 1012.4 |
| 20260904191819 | 60 | 238 | 7.0 | 12.0 | 0.00 | 0.53 | 0.32 | 79 | 1012.2 |
| 20260904191318 | 60 | 217 | 7.0 | 12.0 | 0.00 | 0.54 | 0.32 | 79 | 1012.1 |
| 20260904190818 | 60 | 227 | 6.0 | 13.0 | 0.00 | 0.54 | 0.32 | 78 | 1011.9 |
| 20260904190319 | 60 | 227 | 8.0 | 15.0 | 0.00 | 0.54 | 0.32 | 78 | 1011.9 |
| 20260904185819 | 60 | 255 | 8.0 | 18.0 | 0.00 | 0.54 | 0.32 | 78 | 1011.8 |
| 20260904185318 | 60 | 244 | 6.0 | 14.0 | 0.00 | 0.54 | 0.32 | 78 | 1011.7 |
| 20260904184819 | 60 | 234 | 6.0 | 14.0 | 0.00 | 0.54 | 0.32 | 78 | 1011.6 |
| 20260904184318 | 60 | 230 | 6.0 | 18.0 | 0.00 | 0.55 | 0.32 | 77 | 1011.6 |
| 20260904183818 | 60 | 261 | 5.0 | 10.0 | 0.00 | 0.55 | 0.32 | 77 | 1011.6 |
| 20260904183319 | 60 | 228 | 7.0 | 15.0 | 0.00 | 0.56 | 0.32 | 76 | 1011.4 |
| 20260904182818 | 60 | 234 | 9.0 | 17.0 | 0.00 | 0.56 | 0.32 | 76 | 1011.2 |
| 20260904182318 | 60 | 259 | 7.0 | 18.0 | 0.00 | 0.56 | 0.32 | 75 | 1011.2 |
| 20260904181818 | 61 | 243 | 6.0 | 13.0 | 0.00 | 0.56 | 0.32 | 75 | 1011.1 |
| 20260904181318 | 61 | 242 | 6.0 | 13.0 | 0.00 | 0.57 | 0.32 | 75 | 1011.0 |
| 20260904180319 | 61 | 239 | 6.0 | 14.0 | 0.00 | 0.57 | 0.32 | 74 | 1010.7 |
| 20260904175318 | 62 | 236 | 5.0 | 12.0 | 0.00 | 0.57 | 0.32 | 74 | 1010.5 |
| 20260904174819 | 62 | 254 | 5.0 | 15.0 | 0.00 | 0.57 | 0.32 | 74 | 1010.4 |
| 20260904174318 | 62 | 247 | 6.0 | 15.0 | 0.00 | 0.57 | 0.32 | 74 | 1010.3 |
| 20260904173819 | 62 | 242 | 8.0 | 17.0 | 0.00 | 0.57 | 0.32 | 73 | 1010.2 |
| 20260904173318 | 62 | 244 | 6.0 | 12.0 | 0.00 | 0.57 | 0.32 | 73 | 1010.1 |
| 20260904172318 | 62 | 243 | 10.0 | 15.0 | 0.00 | 0.57 | 0.32 | 71 | 1009.9 |
| 20260904171818 | 62 | 243 | 7.0 | 20.0 | 0.00 | 0.57 | 0.32 | 71 | 1009.9 |
| 20260904171320 | 63 | 257 | 8.0 | 15.0 | 0.00 | 0.57 | 0.32 | 71 | 1009.8 |
| 20260904170819 | 63 | 241 | 7.0 | 16.0 | 0.00 | 0.57 | 0.32 | 70 | 1009.9 |
| 20260904170318 | 63 | 261 | 6.0 | 15.0 | 0.00 | 0.57 | 0.32 | 70 | 1009.7 |
| 20260904165818 | 63 | 266 | 8.0 | 20.0 | 0.00 | 0.57 | 0.32 | 70 | 1009.6 |
| 20260904164819 | 63 | 236 | 7.0 | 17.0 | 0.00 | 0.57 | 0.32 | 69 | 1009.5 |
| 20260904164318 | 63 | 248 | 7.0 | 20.0 | 0.00 | 0.57 | 0.32 | 69 | 1009.4 |
| 20260904163818 | 63 | 252 | 7.0 | 16.0 | 0.00 | 0.57 | 0.32 | 70 | 1009.4 |
| 20260904163319 | 63 | 246 | 7.0 | 16.0 | 0.00 | 0.57 | 0.32 | 70 | 1009.2 |
| 20260904162318 | 63 | 259 | 7.0 | 17.0 | 0.00 | 0.57 | 0.32 | 70 | 1009.1 |
| 20260904161819 | 63 | 244 | 10.0 | 17.0 | 0.00 | 0.57 | 0.32 | 70 | 1008.8 |
| 20260904160819 | 63 | 246 | 10.0 | 18.0 | 0.00 | 0.57 | 0.32 | 70 | 1008.6 |
| 20260904160318 | 63 | 242 | 11.0 | 20.0 | 0.00 | 0.57 | 0.32 | 70 | 1008.6 |
| 20260904155818 | 63 | 254 | 9.0 | 18.0 | 0.00 | 0.57 | 0.32 | 70 | 1008.7 |
| 20260904155318 | 63 | 245 | 9.0 | 18.0 | 0.00 | 0.57 | 0.32 | 70 | 1008.7 |
| 20260904154818 | 63 | 259 | 10.0 | 16.0 | 0.00 | 0.57 | 0.32 | 71 | 1008.6 |
| 20260904154318 | 63 | 253 | 9.0 | 21.0 | 0.00 | 0.57 | 0.32 | 72 | 1008.6 |
| 20260904153818 | 62 | 247 | 9.0 | 20.0 | 0.00 | 0.57 | 0.32 | 72 | 1008.5 |
| 20260904152818 | 62 | 247 | 12.0 | 24.0 | 0.00 | 0.57 | 0.32 | 71 | 1008.4 |
| 20260904152318 | 63 | 260 | 10.0 | 18.0 | 0.00 | 0.57 | 0.32 | 71 | 1008.4 |
| 20260904151319 | 62 | 251 | 12.0 | 22.0 | 0.00 | 0.57 | 0.32 | 72 | 1008.4 |
| 20260904150818 | 62 | 255 | 13.0 | 23.0 | 0.00 | 0.57 | 0.32 | 74 | 1008.4 |
| 20260904145818 | 62 | 242 | 13.0 | 21.0 | 0.00 | 0.57 | 0.32 | 74 | 1008.5 |
| 20260904145318 | 61 | 257 | 14.0 | 21.0 | 0.00 | 0.57 | 0.32 | 74 | 1008.6 |
| 20260904144819 | 62 | 243 | 14.0 | 26.0 | 0.00 | 0.57 | 0.32 | 73 | 1008.4 |
| 20260904144318 | 62 | 243 | 12.0 | 21.0 | 0.00 | 0.57 | 0.32 | 73 | 1008.5 |
| 20260904143819 | 62 | 242 | 10.0 | 25.0 | 0.00 | 0.57 | 0.32 | 73 | 1008.5 |
| 20260904143318 | 62 | 245 | 10.0 | 17.0 | 0.00 | 0.57 | 0.32 | 73 | 1008.5 |
| 20260904142818 | 62 | 246 | 10.0 | 20.0 | 0.00 | 0.57 | 0.32 | 72 | 1008.6 |
| 20260904142318 | 62 | 251 | 11.0 | 23.0 | 0.00 | 0.57 | 0.32 | 73 | 1008.5 |
| 20260904141818 | 61 | 261 | 11.0 | 20.0 | 0.00 | 0.57 | 0.32 | 75 | 1008.7 |
| 20260904141318 | 61 | 241 | 10.0 | 20.0 | 0.00 | 0.57 | 0.32 | 75 | 1008.9 |
| 20260904140820 | 61 | 247 | 12.0 | 18.0 | 0.00 | 0.57 | 0.32 | 75 | 1008.7 |
| 20260904140317 | 61 | 247 | 10.0 | 21.0 | 0.00 | 0.57 | 0.32 | 74 | 1008.6 |
| 20260904135818 | 61 | 246 | 13.0 | 25.0 | 0.00 | 0.57 | 0.32 | 74 | 1008.5 |
| 20260904135318 | 61 | 239 | 11.0 | 21.0 | 0.00 | 0.57 | 0.32 | 74 | 1008.5 |
| 20260904134818 | 61 | 258 | 11.0 | 17.0 | 0.00 | 0.57 | 0.32 | 74 | 1008.4 |
| 20260904134318 | 61 | 243 | 13.0 | 20.0 | 0.00 | 0.57 | 0.32 | 73 | 1008.8 |
| 20260904133818 | 61 | 239 | 11.0 | 22.0 | 0.00 | 0.57 | 0.32 | 74 | 1008.5 |
| 20260904133318 | 61 | 258 | 9.0 | 22.0 | 0.00 | 0.57 | 0.32 | 75 | 1008.5 |
| 20260904132820 | 61 | 256 | 13.0 | 21.0 | 0.00 | 0.57 | 0.32 | 75 | 1008.5 |
| 20260904132318 | 61 | 249 | 10.0 | 17.0 | 0.00 | 0.57 | 0.32 | 77 | 1008.5 |
| 20260904131818 | 61 | 247 | 12.0 | 22.0 | 0.00 | 0.57 | 0.32 | 78 | 1008.4 |
| 20260904131318 | 60 | 234 | 14.0 | 22.0 | 0.00 | 0.57 | 0.32 | 78 | 1008.4 |
| 20260904130817 | 61 | 242 | 11.0 | 20.0 | 0.00 | 0.57 | 0.32 | 79 | 1008.4 |
| 20260904125819 | 61 | 238 | 9.0 | 18.0 | 0.00 | 0.57 | 0.32 | 78 | 1008.2 |
| 20260904125318 | 61 | 249 | 12.0 | 22.0 | 0.00 | 0.57 | 0.32 | 77 | 1008.1 |
| 20260904124819 | 61 | 254 | 13.0 | 21.0 | 0.00 | 0.57 | 0.32 | 78 | 1008.0 |
| 20260904123818 | 61 | 256 | 10.0 | 18.0 | 0.02 | 0.57 | 0.32 | 78 | 1007.9 |
| 20260904122318 | 60 | 244 | 10.0 | 20.0 | 0.02 | 0.57 | 0.32 | 80 | 1007.9 |
| 20260904121819 | 60 | 245 | 9.0 | 20.0 | 0.02 | 0.57 | 0.32 | 79 | 1007.9 |
| 20260904121318 | 61 | 236 | 9.0 | 18.0 | 0.02 | 0.57 | 0.32 | 79 | 1007.9 |
| 20260904120818 | 60 | 251 | 12.0 | 22.0 | 0.02 | 0.57 | 0.32 | 80 | 1007.8 |
| 20260904120318 | 60 | 257 | 12.0 | 21.0 | 0.02 | 0.57 | 0.32 | 84 | 1007.6 |
| 20260904114818 | 59 | 258 | 10.0 | 20.0 | 0.02 | 0.57 | 0.32 | 84 | 1007.3 |
| 20260904113819 | 61 | 258 | 10.0 | 16.0 | 0.00 | 0.56 | 0.31 | 75 | 1007.2 |
| 20260904113319 | 62 | 249 | 12.0 | 21.0 | 0.00 | 0.56 | 0.31 | 74 | 1007.1 |
| 20260904112318 | 61 | 234 | 10.0 | 16.0 | 0.00 | 0.56 | 0.31 | 75 | 1006.7 |
| 20260904111818 | 61 | 243 | 10.0 | 22.0 | 0.00 | 0.56 | 0.31 | 75 | 1006.8 |
| 20260904111318 | 61 | 241 | 10.0 | 20.0 | 0.00 | 0.56 | 0.31 | 75 | 1006.8 |
| 20260904110820 | 61 | 247 | 9.0 | 16.0 | 0.00 | 0.56 | 0.31 | 75 | 1006.7 |
| 20260904110319 | 61 | 248 | 10.0 | 20.0 | 0.00 | 0.56 | 0.31 | 76 | 1006.5 |
| 20260904105818 | 61 | 251 | 8.0 | 20.0 | 0.00 | 0.56 | 0.31 | 75 | 1006.5 |
| 20260904105318 | 61 | 244 | 10.0 | 20.0 | 0.00 | 0.56 | 0.31 | 76 | 1006.6 |
| 20260904104818 | 61 | 253 | 10.0 | 20.0 | 0.00 | 0.56 | 0.31 | 77 | 1006.5 |
| 20260904104318 | 61 | 244 | 11.0 | 20.0 | 0.00 | 0.56 | 0.31 | 76 | 1006.5 |
| 20260904103317 | 61 | 251 | 9.0 | 20.0 | 0.00 | 0.56 | 0.31 | 77 | 1006.5 |
| 20260904102818 | 61 | 249 | 9.0 | 20.0 | 0.00 | 0.56 | 0.31 | 77 | 1006.6 |
| 20260904102318 | 61 | 244 | 11.0 | 20.0 | 0.00 | 0.56 | 0.31 | 76 | 1006.5 |
| 20260904101819 | 61 | 249 | 9.0 | 22.0 | 0.00 | 0.56 | 0.31 | 76 | 1006.4 |
| 20260904101318 | 61 | 240 | 12.0 | 22.0 | 0.00 | 0.56 | 0.31 | 77 | 1006.2 |
| 20260904100818 | 61 | 249 | 10.0 | 20.0 | 0.00 | 0.56 | 0.31 | 77 | 1006.3 |
| 20260904100317 | 61 | 248 | 10.0 | 22.0 | 0.00 | 0.56 | 0.31 | 77 | 1006.2 |
| 20260904095818 | 61 | 254 | 10.0 | 23.0 | 0.00 | 0.56 | 0.31 | 77 | 1006.0 |
| 20260904095318 | 60 | 241 | 11.0 | 21.0 | 0.00 | 0.56 | 0.31 | 78 | 1006.0 |
| 20260904094318 | 60 | 247 | 7.0 | 29.0 | 0.00 | 0.56 | 0.31 | 81 | 1005.9 |
| 20260904093818 | 59 | 248 | 13.0 | 25.0 | 0.00 | 0.56 | 0.31 | 80 | 1006.2 |
| 20260904093318 | 59 | 250 | 10.0 | 18.0 | 0.00 | 0.56 | 0.31 | 82 | 1006.2 |
| 20260904092818 | 59 | 249 | 10.0 | 22.0 | 0.00 | 0.56 | 0.31 | 83 | 1005.9 |
| 20260904092318 | 59 | 248 | 10.0 | 22.0 | 0.00 | 0.56 | 0.31 | 83 | 1005.9 |
| 20260904091818 | 58 | 259 | 10.0 | 18.0 | 0.00 | 0.56 | 0.31 | 84 | 1005.9 |
| 20260904091318 | 58 | 242 | 11.0 | 18.0 | 0.00 | 0.56 | 0.31 | 83 | 1005.8 |
| 20260904090818 | 58 | 251 | 10.0 | 20.0 | 0.00 | 0.56 | 0.31 | 82 | 1005.8 |
| 20260904090317 | 58 | 247 | 10.0 | 20.0 | 0.00 | 0.56 | 0.31 | 83 | 1005.6 |
| 20260904085818 | 59 | 246 | 7.0 | 18.0 | 0.00 | 0.56 | 0.31 | 84 | 1005.6 |
| 20260904085317 | 58 | 248 | 11.0 | 21.0 | 0.00 | 0.56 | 0.31 | 84 | 1005.6 |
| 20260904084818 | 59 | 236 | 14.0 | 21.0 | 0.00 | 0.56 | 0.31 | 84 | 1005.6 |
| 20260904084318 | 59 | 243 | 11.0 | 18.0 | 0.00 | 0.56 | 0.31 | 84 | 1005.4 |
| 20260904083818 | 59 | 238 | 9.0 | 17.0 | 0.00 | 0.56 | 0.31 | 84 | 1005.4 |
| 20260904083318 | 59 | 246 | 10.0 | 17.0 | 0.00 | 0.56 | 0.31 | 84 | 1005.5 |
| 20260904082818 | 59 | 256 | 10.0 | 18.0 | 0.00 | 0.56 | 0.31 | 83 | 1005.4 |
| 20260904082317 | 59 | 243 | 9.0 | 23.0 | 0.00 | 0.56 | 0.31 | 84 | 1005.5 |
| 20260904081319 | 59 | 251 | 10.0 | 18.0 | 0.00 | 0.56 | 0.31 | 85 | 1005.4 |
| 20260904080817 | 59 | 249 | 8.0 | 15.0 | 0.00 | 0.56 | 0.31 | 85 | 1005.4 |
| 20260904080318 | 59 | 247 | 11.0 | 22.0 | 0.00 | 0.56 | 0.31 | 85 | 1005.3 |
| 20260904075818 | 59 | 256 | 9.0 | 18.0 | 0.00 | 0.56 | 0.31 | 86 | 1005.4 |
| 20260904075317 | 58 | 254 | 10.0 | 18.0 | 0.00 | 0.56 | 0.31 | 87 | 1005.2 |
| 20260904074817 | 58 | 247 | 11.0 | 20.0 | 0.00 | 0.57 | 0.31 | 88 | 1005.1 |
| 20260904074318 | 58 | 250 | 9.0 | 18.0 | 0.00 | 0.57 | 0.31 | 89 | 1005.2 |
| 20260904073817 | 58 | 242 | 10.0 | 18.0 | 0.00 | 0.57 | 0.31 | 89 | 1005.1 |
| 20260904073317 | 58 | 239 | 10.0 | 18.0 | 0.00 | 0.57 | 0.31 | 89 | 1005.2 |
| 20260904072818 | 58 | 239 | 9.0 | 15.0 | 0.00 | 0.57 | 0.31 | 89 | 1005.0 |
| 20260904072318 | 58 | 251 | 7.0 | 17.0 | 0.00 | 0.57 | 0.31 | 88 | 1005.0 |
| 20260904071818 | 58 | 247 | 10.0 | 15.0 | 0.00 | 0.57 | 0.31 | 89 | 1005.0 |
| 20260904071317 | 58 | 249 | 9.0 | 21.0 | 0.00 | 0.57 | 0.31 | 89 | 1005.0 |
| 20260904070817 | 58 | 249 | 9.0 | 15.0 | 0.00 | 0.57 | 0.31 | 89 | 1005.0 |
| 20260904070317 | 58 | 249 | 11.0 | 17.0 | 0.00 | 0.57 | 0.31 | 90 | 1005.0 |
| 20260904065318 | 57 | 247 | 10.0 | 17.0 | 0.00 | 0.57 | 0.31 | 91 | 1004.9 |
| 20260904063818 | 57 | 248 | 7.0 | 15.0 | 0.00 | 0.58 | 0.31 | 91 | 1004.7 |
| 20260904063317 | 57 | 239 | 8.0 | 16.0 | 0.00 | 0.58 | 0.31 | 91 | 1004.5 |
| 20260904062818 | 57 | 243 | 11.0 | 18.0 | 0.00 | 0.58 | 0.31 | 91 | 1004.4 |
| 20260904062317 | 57 | 250 | 9.0 | 17.0 | 0.00 | 0.58 | 0.31 | 91 | 1004.5 |
| 20260904061819 | 57 | 244 | 9.0 | 16.0 | 0.00 | 0.58 | 0.31 | 91 | 1004.6 |
| 20260904061318 | 57 | 253 | 9.0 | 14.0 | 0.00 | 0.58 | 0.31 | 92 | 1004.9 |
| 20260904060818 | 57 | 244 | 11.0 | 20.0 | 0.00 | 0.58 | 0.31 | 92 | 1004.7 |
| 20260904060318 | 57 | 264 | 9.0 | 18.0 | 0.00 | 0.58 | 0.31 | 93 | 1004.7 |
| 20260904055317 | 57 | 250 | 9.0 | 16.0 | 0.00 | 0.58 | 0.31 | 93 | 1004.5 |
| 20260904054318 | 57 | 247 | 9.0 | 20.0 | 0.00 | 0.58 | 0.31 | 94 | 1004.5 |
| 20260904053818 | 57 | 252 | 7.0 | 16.0 | 0.00 | 0.58 | 0.31 | 94 | 1004.5 |
| 20260904053318 | 57 | 239 | 7.0 | 15.0 | 0.00 | 0.58 | 0.31 | 94 | 1004.6 |
| 20260904052818 | 57 | 247 | 7.0 | 15.0 | 0.00 | 0.58 | 0.31 | 94 | 1004.6 |
| 20260904051817 | 57 | 251 | 7.0 | 15.0 | 0.00 | 0.58 | 0.31 | 95 | 1004.5 |
| 20260904051317 | 57 | 248 | 7.0 | 14.0 | 0.00 | 0.58 | 0.31 | 95 | 1004.5 |
| 20260904050817 | 57 | 254 | 6.0 | 12.0 | 0.00 | 0.58 | 0.31 | 95 | 1004.4 |
| 20260904050318 | 58 | 263 | 8.0 | 17.0 | 0.00 | 0.58 | 0.31 | 95 | 1004.4 |
| 20260904045818 | 58 | 255 | 7.0 | 13.0 | 0.00 | 0.58 | 0.31 | 96 | 1004.5 |
| 20260904045317 | 58 | 250 | 7.0 | 13.0 | 0.00 | 0.58 | 0.31 | 96 | 1004.6 |
| 20260904044819 | 58 | 252 | 6.0 | 10.0 | 0.00 | 0.58 | 0.31 | 96 | 1004.4 |
| 20260904044317 | 57 | 245 | 6.0 | 10.0 | 0.00 | 0.58 | 0.31 | 96 | 1004.5 |